Wetbulb
44.26 44.58 44.76 44.47 43.60 43.66 44.02 44.31 44.74 45.32 44.51 43.58 42.86 42.13 41.51 40.31 40.46 41.71 41.52 44.30 40.35 35.47 36.82 37.94 38.36 35.64 34.45 33.89 31.30 30.45 29.27 27.82 27.63 25.38 26.53 27.95 24.26 24.13 20.65 25.41 20.40 21.01 19.97 19.04 21.88 21.18 22.77 27.71 25.12 28.48 36.23 26.51 27.63 29.82
43.60 44.03 43.83 43.28 42.96 42.94 42.75 42.85 42.90 43.76 45.65 44.54 43.43 42.84 42.05 40.86 39.83 40.07 38.17 42.20 41.53 35.84 34.61 37.00 38.19 39.10 39.14 36.37 34.83 31.20 32.27 30.28 31.78 28.84 29.21 28.79 24.59 24.30 23.55 24.55 25.29 20.55 27.58 26.94 25.86 28.87 32.54 28.74 31.57 32.17 28.20 32.00 27.99 30.31
43.20 43.00 42.61 42.30 41.90 41.45 41.63 41.52 41.69 42.16 43.27 45.04 44.20 43.54 42.71 41.81 40.64 39.42 38.91 41.12 40.42 33.34 34.34 34.89 33.74 36.79 36.38 37.26 38.33 33.06 31.84 34.26 32.27 33.87 32.23 30.25 25.24 27.99 24.75 24.52 26.45 25.17 29.23 25.12 25.91 32.60 29.91 31.26 31.03 31.18 28.83 29.76 31.17 31.83
41.82 41.72 41.65 40.96 40.24 40.18 40.26 40.17 40.52 41.06 42.00 42.97 44.65 44.14 43.33 42.22 41.09 40.17 38.06 40.99 38.83 34.33 28.96 31.81 35.57 32.86 34.86 35.02 36.03 36.01 33.50 32.72 33.31 33.17 30.61 29.64 27.11 31.74 27.77 26.93 25.81 28.54 26.46 26.53 27.18 30.49 32.06 33.21 32.66 33.77 30.81 27.95 28.43 30.20
41.08 40.94 40.61 39.82 39.74 39.51 39.28 39.21 39.68 40.23 40.56 41.51 42.79 44.60 43.76 42.47 41.25 40.63 40.73 39.96 41.04 35.34 28.76 31.66 33.61 33.25 32.48 33.22 33.52 33.94 33.20 31.64 30.36 28.47 28.89 27.67 30.72 28.14 29.22 25.99 25.10 26.95 27.69 26.95 29.81 35.04 35.04 35.47 34.47 34.16 32.06 29.54 29.15 28.45
40.38 39.83 39.63 39.25 39.28 38.77 38.66 39.21 39.35 39.31 39.99 40.47 41.68 42.73 43.61 42.54 40.92 37.99 31.48 40.31 39.40 39.40 31.32 26.87 33.51 29.34 29.57 31.16 31.47 31.67 32.79 32.60 32.26 31.11 31.36 32.44 31.46 28.98 28.64 26.91 30.44 31.33 33.41 34.99 33.70 33.82 33.67 33.98 32.82 32.45 31.79 32.31 31.04 28.98
39.15 38.48 38.60 38.97 38.87 38.65 38.80 38.52 38.52 39.46 39.98 40.59 41.19 42.26 43.98 42.27 40.56 33.99 32.91 37.72 40.66 39.82 30.79 27.64 29.60 28.62 28.91 30.40 30.66 30.57 31.76 31.59 31.26 30.67 29.52 30.11 29.40 28.99 28.68 26.20 33.07 32.86 34.04 33.82 33.91 30.68 30.87 32.81 32.87 30.68 29.15 30.11 28.73 26.79
38.54 38.29 38.27 38.33 38.21 38.24 38.32 39.13 39.98 40.08 40.10 40.59 40.76 41.95 43.35 42.28 39.54 34.84 39.19 41.48 40.12 34.11 32.05 25.21 28.22 27.12 29.44 26.95 26.92 31.32 28.77 29.28 29.67 29.95 30.46 27.04 28.16 28.67 24.72 29.55 32.71 34.83 35.86 35.09 32.54 31.91 33.79 28.47 27.02 25.46 25.05 24.91 22.41 24.06
37.64 37.75 37.65 37.45 37.67 38.05 38.76 39.44 40.26 40.08 40.55 40.43 40.82 41.89 37.20 33.43 31.91 33.23 37.91 39.97 40.77 34.80 28.70 29.18 25.12 24.55 28.33 27.34 28.08 27.96 29.25 24.87 28.77 25.72 26.59 26.57 26.46 22.22 27.18 29.82 31.25 32.31 31.45 31.74 27.71 26.12 26.88 26.28 28.26 25.73 23.42 22.83 24.03 25.16
37.27 37.23 37.02 36.86 37.68 38.25 39.32 40.00 40.05 40.27 40.77 40.78 37.05 31.51 28.70 31.72 37.27 37.96 34.50 29.63 30.53 30.44 29.36 24.07 28.07 26.19 27.25 25.35 25.68 25.08 26.53 25.06 22.74 25.11 23.41 21.38 22.98 28.63 30.69 32.06 32.19 32.75 32.47 28.21 26.20 26.92 22.17 22.29 24.28 26.07 24.56 25.52 25.82 26.11
36.81 36.98 36.38 36.02 37.83 38.07 38.45 39.63 40.38 40.24 39.53 32.07 29.19 27.82 31.59 37.31 35.40 31.80 25.65 25.25 26.25 23.92 28.81 28.74 28.35 25.62 27.90 24.55 24.69 26.61 25.18 24.97 19.70 21.73 20.23 22.93 21.09 25.17 28.96 28.00 25.93 23.61 28.23 31.17 31.65 30.90 28.61 28.30 28.61 26.44 25.86 24.89 24.56 24.02
36.57 36.94 36.26 36.45 38.04 37.73 39.66 40.02 40.02 35.42 33.45 32.72 32.32 33.63 31.99 29.54 25.23 23.00 21.52 25.36 23.49 21.64 26.25 24.98 25.12 26.35 27.34 28.01 26.08 23.92 22.73 21.52 18.72 18.11 17.71 18.89 25.67 29.37 26.21 24.72 20.70 17.72 17.41 19.44 18.80 20.48 22.05 21.55 21.59 20.12 19.27 20.64 21.68 21.66
36.53 36.86 36.25 36.70 37.92 38.48 39.02 38.25 37.55 37.44 36.03 32.61 28.59 24.94 24.68 21.21 16.56 15.06 13.73 19.26 21.17 25.32 24.69 24.55 23.39 24.31 23.81 24.35 25.89 22.74 19.13 19.29 17.20 15.77 17.64 23.57 29.50 26.17 23.61 20.89 18.73 15.87 15.11 15.17 15.45 14.36 13.94 14.02 14.00 12.65 15.31 18.28 17.11 16.74
36.61 36.88 36.79 36.46 37.96 38.94 38.58 38.30 37.51 35.56 32.17 25.49 21.46 15.40 18.11 15.67 17.56 19.00 21.62 23.19 24.67 24.82 24.45 24.43 22.58 22.58 25.63 22.29 25.33 21.40 20.31 15.99 15.58 13.50 17.39 28.26 26.96 19.48 17.77 16.94 16.53 18.87 16.24 14.66 14.86 13.46 11.67 10.29 11.04 12.24 11.29 12.58 13.45 16.32
36.60 36.57 37.04 36.87 37.10 38.06 38.34 38.01 36.78 33.96 29.30 21.97 21.35 14.24 15.56 21.86 22.82 24.59 25.13 24.89 25.27 25.91 25.78 24.45 22.26 20.95 21.46 20.56 22.86 16.53 12.18 13.80 19.01 23.67 30.03 27.88 18.19 15.08 16.65 16.12 15.25 15.78 15.11 15.28 14.19 13.00 12.00 10.51 9.59 10.37 12.03 11.04 13.27 14.83
37.56 36.65 35.34 37.02 37.28 37.13 37.52 36.94 33.39 32.11 28.14 22.91 20.39 17.35 18.42 18.70 20.05 21.92 24.10 24.79 27.88 26.92 27.18 24.81 20.38 19.35 17.95 21.12 16.44 17.22 20.13 19.17 27.52 27.73 26.17 19.14 16.96 13.26 13.73 12.83 12.56 12.81 13.41 13.74 14.41 13.58 13.42 11.79 10.78 12.28 12.47 13.17 12.86 15.79
37.27 34.28 37.03 37.20 37.18 37.27 36.80 32.17 31.13 27.15 24.62 21.64 19.29 22.59 23.54 23.10 22.96 23.96 26.49 26.52 29.63 26.10 20.24 21.85 17.42 18.25 20.66 17.17 19.13 23.72 22.88 29.13 33.20 24.69 17.80 14.62 14.33 13.20 11.30 11.42 12.04 12.96 13.35 12.99 12.87 13.00 13.58 14.19 14.05 16.65 15.34 15.11 15.86 14.83
32.53 35.42 37.53 37.56 36.37 35.03 32.20 32.30 27.76 24.51 20.42 22.22 19.10 22.02 20.99 26.33 25.06 25.86 27.85 28.72 26.40 24.54 23.66 19.81 23.67 18.07 16.07 15.57 21.98 26.26 25.56 23.32 18.39 15.30 14.01 11.98 11.20 9.53 11.21 12.06 11.41 11.98 11.86 11.34 11.52 12.22 12.85 14.74 14.77 14.30 15.07 15.76 15.99 15.57
34.32 35.77 37.50 37.50 34.77 30.76 27.28 27.13 27.75 20.04 20.23 20.10 20.06 19.04 22.55 24.61 26.20 27.37 27.94 28.24 27.78 29.45 26.66 23.37 19.28 17.63 18.60 24.28 21.60 19.92 19.12 15.73 14.21 14.52 11.16 8.72 10.36 9.64 10.33 10.87 11.26 10.99 10.29 10.68 11.01 10.91 10.98 10.03 11.20 13.44 15.11 16.05 13.47 13.93
37.03 37.02 37.44 37.02 35.01 27.82 22.93 23.31 25.59 21.26 16.88 20.27 18.88 19.93 23.21 24.84 26.34 26.51 25.72 25.24 24.51 24.00 21.59 19.77 19.54 22.28 23.52 25.84 17.26 15.04 12.45 12.18 12.30 12.09 12.95 11.39 11.57 11.11 12.04 12.10 11.05 11.08 11.26 11.29 10.50 11.61 12.90 11.46 11.56 11.67 11.72 12.44 12.02 10.76
35.10 35.14 36.76 34.58 29.08 27.14 24.31 21.42 20.87 20.87 18.02 18.64 19.94 20.02 21.43 20.27 20.52 21.03 21.66 23.94 21.23 20.97 19.64 23.72 24.64 28.24 13.32 12.84 12.89 11.19 9.49 9.68 11.54 14.90 16.38 11.96 11.39 11.61 10.61 10.95 11.26 11.76 11.28 11.36 10.50 9.38 9.51 8.94 10.11 11.41 10.74 10.08 10.09 9.65
31.86 35.61 31.66 31.88 26.49 22.06 24.21 20.55 20.52 17.83 17.54 17.07 16.04 18.63 18.77 18.23 18.82 20.29 23.40 20.30 20.21 21.94 23.15 17.59 12.20 11.30 10.81 10.43 11.51 10.15 10.28 11.21 11.44 10.39 10.94 11.51 10.36 10.68 10.61 11.04 11.09 9.35 9.24 9.33 9.96 8.88 8.32 9.19 10.21 10.23 9.32 8.10 7.49 6.99
34.79 31.96 28.00 26.50 21.06 19.55 17.09 16.74 17.00 16.67 15.41 15.54 16.23 16.16 16.41 17.13 19.81 22.12 19.83 21.13 17.40 7.60 6.11 6.15 8.01 9.03 8.18 10.00 9.84 10.51 10.79 11.02 10.83 10.16 10.11 9.62 9.03 9.22 9.32 9.18 10.42 8.95 6.42 5.47 8.63 8.79 7.40 8.33 8.35 8.34 8.36 8.28 7.36 6.00
33.00 26.93 22.90 20.97 21.58 15.60 13.50 13.38 13.13 14.01 13.63 14.53 14.58 13.52 15.14 18.11 18.84 17.55 15.66 19.85 10.40 5.05 5.13 6.53 7.94 8.71 9.25 8.34 8.65 9.32 9.96 11.41 10.10 9.69 9.51 8.48 6.24 5.12 6.23 5.55 5.42 5.54 6.86 7.32 7.55 7.33 7.18 6.62 7.12 6.98 6.34 5.34 4.70 3.73
20.57 19.45 20.41 14.56 13.37 11.15 7.60 9.26 9.24 11.26 9.94 11.48 12.60 14.55 15.05 16.63 14.56 14.29 15.05 15.99 3.26 3.36 3.26 3.49 7.88 9.64 9.31 9.14 8.34 8.42 9.72 11.49 9.55 6.50 5.96 6.74 5.02 4.90 3.81 4.00 3.74 4.04 7.00 7.58 6.09 5.48 4.94 5.20 4.77 4.04 3.47 2.84 1.73 1.34
15.38 13.50 13.69 13.99 8.84 10.37 8.85 6.64 7.64 8.92 10.47 9.36 11.87 14.23 14.38 13.92 10.88 11.56 12.61 -0.87 -1.99 -1.74 -2.14 -2.72 -1.60 2.03 7.49 7.18 7.42 7.23 6.86 10.22 9.03 5.25 4.62 7.78 8.56 7.38 5.66 5.43 5.22 4.08 5.77 8.07 6.90 4.71 3.47 3.25 2.20 1.24 0.41 0.55 1.05 -0.06
8.39 8.13 8.09 3.24 9.65 8.90 6.60 7.01 8.53 10.32 7.35 7.74 9.66 8.22 9.91 4.58 7.72 8.41 -3.66 -4.28 -4.26 -2.58 -2.48 -1.88 -2.07 -1.09 1.16 4.92 5.44 5.25 5.60 5.82 6.68 4.47 3.79 3.85 4.49 6.14 8.40 6.83 4.13 3.49 6.77 7.24 6.78 5.15 2.62 0.88 -0.42 -1.62 -3.00 -3.46 -3.07 -2.16
11.99 3.71 5.50 3.14 2.10 2.34 4.03 5.14 7.57 8.83 10.99 5.59 8.63 6.09 8.35 10.75 12.92 -0.70 -3.63 -3.54 -3.72 -3.44 -2.92 -0.56 1.57 2.38 4.49 4.64 4.75 4.05 3.21 3.60 3.64 4.28 4.78 4.14 3.79 4.69 6.44 6.14 6.74 7.25 5.18 4.93 3.57 2.81 1.18 -0.30 -1.78 -3.01 -4.47 -6.16 -6.52 -4.88
2.39 0.30 5.97 -8.16 -4.77 0.01 3.13 6.02 8.74 3.19 -3.66 3.23 9.20 6.84 5.91 -3.04 -5.20 -6.39 -5.12 -3.76 -3.52 -3.87 -3.03 0.06 1.45 3.89 3.71 4.11 4.18 5.01 5.51 5.52 5.14 4.44 2.59 1.12 1.84 0.97 5.15 4.80 4.21 4.13 3.64 2.53 4.30 0.11 -2.07 -2.49 -3.66 -5.18 -5.57 -6.34 -6.65 -6.52
-1.29 1.95 -0.33 -5.90 0.07 4.96 -2.65 -7.75 -6.45 -9.47 -8.17 -7.93 -7.78 -8.15 -7.80 -8.04 -6.29 -4.11 -6.35 -6.30 -5.55 -3.30 -0.38 1.13 2.00 3.54 2.48 2.53 1.43 1.67 1.39 1.33 2.75 7.22 5.42 3.66 1.80 2.51 4.15 3.56 2.59 3.41 4.09 2.63 0.86 0.22 3.06 -1.60 -0.81 -3.99 -5.12 -5.84 -6.42 -7.79
-0.08 -0.46 -5.09 -6.23 -7.71 -9.05 -9.64 -9.64 -9.12 -9.02 -9.17 -9.26 -9.19 -6.70 -5.32 -6.60 -5.39 -4.32 -5.13 -4.53 -3.85 -2.42 -1.26 -0.04 1.52 3.14 3.29 2.85 2.74 1.93 1.60 0.64 1.41 3.10 3.44 2.63 2.15 1.72 0.84 -0.03 -0.07 -0.06 -0.82 -1.93 -3.01 -3.75 -4.32 -5.32 -6.44 -8.20 -9.96 -11.30 -11.87 -11.09
-1.77 -2.61 -1.42 -3.49 -10.46 -10.73 -8.62 -8.54 -8.11 -7.36 -8.46 -9.24 -8.15 -7.84 -8.36 -8.26 -8.38 -6.85 -5.62 -5.85 -5.56 -3.45 -0.83 0.53 0.32 -0.31 1.35 0.80 0.48 0.47 1.44 0.10 0.32 0.89 0.90 -0.14 -1.05 -1.24 -1.48 -2.03 -2.26 -2.75 -3.69 -4.77 -5.31 -6.05 -7.07 -7.76 -9.04 -10.59 -12.68 -14.50 -15.35 -16.11
-4.79 -4.78 -5.97 -8.19 -11.56 -11.39 -9.07 -6.94 -6.19 -6.01 -6.42 -6.36 -6.02 -7.47 -7.88 -6.96 -6.16 -6.71 -5.92 -5.16 -4.78 -2.38 -1.21 -1.02 -0.16 0.87 0.55 0.18 -0.49 -0.27 0.64 1.19 2.57 3.73 1.82 0.63 -1.05 -1.30 -2.97 -3.70 -4.02 -4.67 -5.82 -6.88 -7.80 -8.73 -10.14 -11.58 -12.79 -14.65 -15.80 -16.57 -17.54 -17.85
MSLP
1016.81 1017.05 1017.53 1017.96 1018.12 1018.35 1018.59 1018.82 1018.98 1019.20 1019.33 1019.62 1019.87 1020.13 1020.31 1020.42 1020.45 1020.28 1020.15 1020.29 1020.43 1019.89 1019.44 1019.22 1019.03 1019.30 1019.41 1019.59 1019.72 1020.19 1020.63 1020.68 1020.59 1019.76 1018.74 1017.97 1018.12 1018.21 1018.06 1016.84 1016.99 1016.62 1016.51 1016.21 1015.78 1014.56 1012.03 1011.03 1012.08 1011.70 1010.04 1010.28 1010.71 1011.60
1016.10 1016.56 1017.01 1017.27 1017.61 1017.96 1018.17 1018.40 1018.61 1018.85 1018.92 1019.09 1019.42 1019.74 1020.06 1020.30 1020.38 1020.39 1020.38 1020.52 1020.57 1020.26 1019.78 1019.48 1019.14 1018.86 1018.78 1019.05 1019.23 1019.80 1019.89 1019.95 1019.55 1019.16 1018.62 1018.12 1017.86 1017.73 1017.19 1016.20 1015.91 1015.60 1014.04 1013.90 1013.48 1011.07 1009.82 1010.36 1009.95 1009.75 1010.02 1010.12 1010.62 1011.04
1015.61 1016.14 1016.61 1016.84 1017.23 1017.55 1017.72 1017.94 1018.20 1018.46 1018.61 1018.78 1018.96 1019.22 1019.63 1019.98 1020.20 1020.35 1020.39 1020.39 1020.31 1020.36 1019.74 1019.48 1018.99 1018.97 1019.13 1019.06 1018.98 1019.49 1019.67 1019.41 1019.44 1019.32 1018.70 1018.14 1017.53 1016.73 1016.11 1015.18 1014.45 1014.07 1013.43 1013.11 1012.20 1009.06 1009.02 1009.37 1009.32 1009.73 1010.08 1010.14 1010.16 1010.43
1015.05 1015.52 1016.02 1016.47 1016.87 1017.10 1017.27 1017.62 1017.88 1018.13 1018.26 1018.37 1018.56 1018.79 1019.17 1019.63 1019.99 1020.13 1020.22 1020.24 1020.52 1020.57 1020.16 1018.85 1018.79 1018.99 1019.11 1019.21 1019.17 1019.17 1019.23 1019.56 1019.60 1019.58 1018.90 1017.97 1017.19 1016.32 1015.26 1014.54 1013.99 1013.25 1013.06 1011.75 1010.35 1008.43 1008.01 1007.70 1008.10 1008.13 1008.91 1009.79 1010.31 1010.40
1014.57 1015.03 1015.56 1015.95 1016.28 1016.62 1016.96 1017.19 1017.39 1017.60 1017.75 1017.89 1018.04 1018.25 1018.72 1019.25 1019.76 1019.99 1020.11 1020.03 1020.18 1020.56 1019.95 1018.96 1018.62 1018.78 1019.13 1019.31 1019.33 1019.41 1019.35 1019.45 1019.52 1019.33 1018.49 1017.47 1016.74 1016.51 1015.34 1014.83 1012.60 1011.59 1010.40 1009.86 1007.73 1006.97 1007.02 1006.88 1007.21 1007.52 1008.23 1008.53 1009.15 1009.88
1014.11 1014.65 1015.11 1015.40 1015.80 1016.14 1016.38 1016.58 1016.81 1017.00 1017.14 1017.28 1017.63 1017.96 1018.50 1018.82 1019.52 1020.04 1020.03 1019.91 1019.98 1020.06 1020.45 1019.42 1018.79 1019.00 1019.41 1019.48 1019.44 1019.44 1019.40 1019.34 1019.10 1018.46 1017.60 1016.69 1016.34 1016.28 1014.76 1012.69 1009.23 1008.17 1007.76 1007.01 1006.23 1006.63 1006.78 1006.71 1007.16 1007.52 1007.92 1008.16 1008.65 1009.21
1013.52 1013.96 1014.35 1014.76 1015.20 1015.40 1015.62 1015.86 1016.03 1016.04 1016.23 1016.56 1016.94 1017.34 1017.95 1018.69 1019.13 1019.59 1019.57 1019.75 1019.74 1020.03 1020.32 1019.43 1018.59 1019.12 1019.42 1019.41 1019.39 1019.38 1019.38 1019.12 1019.00 1018.27 1017.24 1016.52 1016.37 1016.29 1014.59 1011.09 1005.66 1006.74 1006.10 1006.32 1006.37 1007.15 1007.07 1006.87 1006.92 1007.15 1007.70 1008.11 1008.35 1008.99
1012.94 1013.36 1014.01 1014.42 1014.67 1014.88 1014.98 1014.81 1014.76 1014.92 1015.36 1015.82 1016.32 1016.94 1017.76 1018.36 1019.01 1019.44 1019.29 1019.50 1019.95 1020.26 1020.21 1019.54 1018.51 1019.16 1019.51 1019.19 1019.16 1019.19 1019.01 1018.96 1018.34 1017.56 1016.89 1016.48 1016.36 1015.65 1012.48 1005.60 1005.50 1005.39 1005.89 1005.98 1006.18 1006.56 1006.46 1006.88 1007.31 1007.75 1008.13 1008.55 1009.02 1009.30
1012.54 1013.04 1013.56 1013.93 1014.13 1014.08 1014.04 1013.93 1013.86 1014.18 1014.58 1015.34 1016.00 1016.86 1018.02 1018.47 1018.75 1018.86 1019.24 1019.23 1019.61 1020.47 1019.60 1018.77 1018.49 1018.64 1019.58 1019.24 1019.20 1019.25 1018.92 1018.28 1017.90 1017.23 1016.66 1016.57 1014.87 1012.49 1006.41 1005.83 1005.31 1005.31 1005.83 1005.74 1006.37 1006.84 1007.08 1007.34 1007.54 1007.91 1008.42 1008.75 1008.94 1008.99
1011.95 1012.62 1013.19 1013.48 1013.32 1013.24 1012.94 1012.84 1013.29 1013.56 1014.17 1015.06 1016.52 1017.49 1017.79 1018.10 1018.28 1018.66 1019.61 1019.71 1020.06 1019.97 1019.80 1019.10 1018.65 1018.67 1019.06 1019.21 1018.90 1019.07 1018.66 1017.91 1017.27 1016.40 1016.63 1015.59 1012.13 1007.34 1006.59 1005.46 1005.27 1005.53 1005.59 1006.24 1006.90 1007.15 1007.51 1007.56 1007.55 1007.79 1007.92 1008.08 1008.23 1008.47
1011.54 1012.21 1012.83 1013.01 1012.88 1012.61 1012.25 1011.99 1012.53 1013.17 1014.35 1015.63 1016.42 1017.39 1018.22 1017.97 1018.07 1018.61 1019.05 1019.16 1018.97 1018.71 1018.36 1018.05 1017.84 1017.76 1018.33 1018.30 1018.33 1018.33 1017.67 1017.47 1017.10 1016.56 1016.38 1013.77 1010.35 1006.61 1005.63 1005.77 1005.96 1006.19 1006.33 1006.48 1006.50 1006.50 1006.90 1007.18 1007.42 1007.71 1007.83 1007.95 1008.17 1008.41
1011.14 1011.94 1012.53 1012.82 1012.54 1012.19 1010.76 1011.37 1012.28 1013.72 1014.58 1015.28 1016.18 1017.16 1018.15 1018.31 1018.57 1018.63 1018.39 1018.05 1017.86 1017.59 1017.98 1018.16 1018.36 1018.30 1018.09 1018.12 1017.73 1018.11 1017.42 1017.22 1016.45 1016.43 1015.70 1012.20 1007.74 1006.19 1006.53 1006.67 1007.03 1007.54 1007.38 1007.42 1007.61 1007.75 1007.87 1008.08 1008.23 1008.37 1008.33 1008.34 1008.38 1008.44
1010.71 1011.42 1012.15 1012.54 1012.25 1012.42 1012.22 1012.24 1012.82 1013.76 1014.64 1016.21 1016.64 1017.34 1017.59 1018.66 1018.12 1017.71 1017.24 1017.08 1017.03 1017.37 1018.23 1018.53 1018.54 1018.45 1018.56 1018.24 1017.45 1017.26 1017.23 1016.50 1016.36 1015.45 1012.73 1009.54 1006.86 1006.68 1007.24 1007.70 1008.13 1008.58 1008.38 1008.21 1008.46 1008.64 1008.74 1008.87 1008.93 1009.06 1008.86 1008.80 1008.83 1008.95
1010.44 1011.02 1011.84 1012.03 1012.03 1012.41 1012.87 1013.42 1013.91 1014.32 1014.85 1016.08 1016.57 1017.37 1017.27 1017.61 1017.12 1016.64 1016.30 1016.43 1017.35 1017.67 1017.86 1018.01 1018.10 1018.23 1017.85 1017.76 1016.31 1015.98 1016.09 1016.04 1014.78 1012.97 1010.01 1007.74 1007.39 1008.00 1008.54 1008.98 1009.11 1009.30 1009.10 1009.00 1009.18 1009.17 1009.24 1009.43 1009.35 1009.29 1009.32 1009.30 1009.31 1009.21
1010.23 1010.71 1011.29 1011.70 1011.88 1012.32 1012.90 1013.34 1013.82 1014.45 1015.11 1015.85 1016.09 1016.34 1016.75 1016.33 1016.56 1016.52 1016.60 1016.77 1017.25 1017.44 1017.19 1017.26 1017.80 1017.96 1017.46 1016.91 1015.45 1015.24 1015.34 1013.51 1011.32 1008.97 1008.17 1007.78 1008.76 1009.28 1009.65 1009.94 1010.05 1010.27 1009.87 1009.68 1009.84 1009.79 1009.79 1009.80 1009.61 1009.50 1009.37 1009.31 1009.39 1009.38
1010.05 1010.66 1011.03 1011.52 1011.93 1012.34 1012.85 1013.80 1014.69 1015.05 1015.42 1015.93 1016.39 1016.46 1016.73 1016.73 1016.77 1016.71 1016.42 1016.43 1016.68 1016.73 1016.89 1017.18 1017.30 1017.06 1016.36 1014.92 1014.26 1012.83 1011.89 1010.07 1008.47 1008.78 1008.84 1009.42 1009.89 1010.46 1010.71 1010.97 1010.87 1011.12 1010.84 1010.40 1010.32 1010.28 1010.36 1010.13 1009.84 1009.69 1009.54 1009.52 1009.73 1009.68
1009.90 1010.45 1010.74 1011.27 1011.83 1012.60 1013.45 1014.28 1015.02 1015.38 1015.74 1016.06 1016.19 1016.04 1015.95 1015.80 1015.84 1015.77 1015.81 1015.78 1016.01 1016.29 1016.70 1016.95 1016.73 1015.52 1015.34 1013.82 1012.18 1011.07 1009.30 1008.46 1008.76 1009.34 1010.26 1011.03 1011.48 1011.66 1011.85 1011.76 1011.50 1011.64 1011.35 1011.08 1010.79 1010.78 1010.60 1010.40 1009.88 1009.49 1009.84 1010.40 1010.55 1010.57
1010.10 1010.30 1010.43 1011.13 1011.81 1012.92 1014.10 1014.29 1014.80 1015.49 1015.73 1015.83 1016.00 1015.49 1015.51 1015.06 1015.29 1015.29 1015.21 1015.22 1015.60 1015.70 1015.92 1016.03 1015.70 1015.16 1014.36 1013.39 1011.64 1010.67 1011.33 1011.47 1011.43 1011.74 1011.67 1012.17 1012.33 1012.48 1012.64 1012.44 1012.41 1012.13 1012.07 1011.68 1011.42 1011.46 1011.25 1010.81 1010.54 1010.86 1011.00 1011.21 1011.31 1011.59
1009.54 1009.96 1010.28 1011.00 1011.94 1013.07 1013.98 1014.68 1014.93 1015.13 1015.44 1015.63 1015.42 1015.54 1015.23 1014.98 1014.92 1014.68 1014.60 1014.49 1014.64 1014.62 1015.01 1015.22 1014.66 1013.56 1013.00 1012.54 1012.93 1012.68 1012.87 1013.54 1013.75 1013.32 1013.59 1013.57 1013.41 1013.37 1013.20 1013.02 1012.86 1012.82 1012.49 1012.19 1012.16 1012.42 1012.46 1012.31 1012.20 1012.11 1011.86 1011.79 1012.07 1012.39
1009.32 1009.74 1010.19 1011.04 1011.78 1012.99 1014.13 1014.71 1014.93 1015.01 1015.23 1014.98 1015.19 1015.02 1014.76 1014.31 1013.91 1013.93 1013.90 1014.19 1014.70 1015.04 1014.92 1014.16 1013.00 1012.59 1012.53 1012.49 1013.21 1013.49 1014.17 1014.47 1014.49 1013.87 1013.48 1013.44 1013.60 1013.59 1013.43 1013.42 1013.41 1013.34 1012.91 1012.75 1013.04 1013.19 1013.27 1013.40 1013.30 1013.16 1013.05 1012.97 1013.00 1013.30
1009.48 1009.85 1010.28 1011.28 1012.49 1013.06 1013.60 1014.27 1014.69 1014.81 1014.87 1014.87 1014.45 1014.52 1014.13 1013.93 1013.75 1013.55 1013.41 1013.79 1014.47 1014.09 1013.33 1013.05 1012.79 1011.66 1013.07 1013.64 1014.08 1014.54 1014.52 1014.68 1014.30 1013.87 1013.48 1013.46 1013.99 1014.02 1014.00 1014.09 1013.94 1013.70 1013.67 1013.66 1013.89 1014.24 1014.41 1014.57 1014.41 1014.18 1014.16 1014.13 1014.15 1014.25
1009.10 1009.85 1010.92 1011.50 1011.88 1013.16 1013.67 1014.33 1014.52 1014.98 1014.98 1014.63 1014.69 1014.22 1013.80 1013.64 1013.30 1012.89 1012.81 1013.57 1013.30 1012.86 1012.60 1013.33 1013.58 1013.73 1013.99 1014.15 1014.18 1014.43 1014.55 1014.45 1014.12 1014.01 1013.77 1013.92 1014.07 1014.16 1014.34 1014.41 1014.23 1014.47 1014.60 1014.56 1014.74 1014.97 1015.19 1015.32 1015.20 1015.19 1015.29 1015.32 1015.25 1015.21
1008.98 1009.97 1011.07 1011.63 1012.65 1013.39 1014.46 1015.01 1014.85 1014.84 1014.65 1014.32 1014.36 1013.96 1013.40 1012.96 1012.23 1012.33 1012.57 1012.51 1012.82 1013.65 1013.93 1014.48 1014.72 1014.61 1014.56 1014.36 1014.47 1014.47 1014.44 1013.76 1013.86 1014.01 1014.01 1014.33 1014.52 1014.63 1014.85 1014.95 1015.24 1015.28 1015.08 1015.42 1015.58 1015.62 1015.82 1015.95 1015.99 1016.03 1016.24 1016.31 1016.27 1016.27
1008.84 1010.18 1011.01 1011.74 1012.37 1013.67 1014.64 1014.76 1014.92 1014.64 1014.35 1014.28 1013.97 1013.34 1012.62 1012.01 1011.97 1012.38 1012.46 1012.18 1013.13 1014.50 1015.00 1014.95 1014.92 1015.02 1014.88 1014.59 1014.85 1014.61 1014.18 1014.20 1014.55 1014.69 1014.58 1014.72 1015.03 1015.36 1015.60 1015.90 1016.06 1015.99 1015.96 1016.20 1016.28 1016.38 1016.50 1016.72 1016.83 1016.88 1017.22 1017.53 1017.65 1017.58
1009.45 1010.72 1011.27 1012.18 1013.11 1013.90 1014.43 1014.63 1014.54 1014.52 1014.02 1013.60 1013.64 1012.87 1012.03 1012.07 1012.39 1012.42 1012.24 1012.81 1014.42 1015.36 1015.79 1015.60 1015.21 1015.17 1014.98 1014.57 1014.79 1014.57 1014.84 1014.51 1014.81 1015.37 1015.30 1015.38 1015.74 1016.05 1016.30 1016.51 1016.89 1016.98 1016.81 1016.69 1016.81 1016.98 1017.32 1017.58 1017.87 1018.15 1018.48 1018.64 1018.65 1018.82
1009.45 1011.02 1011.88 1012.16 1013.27 1013.52 1013.80 1014.21 1014.24 1013.76 1013.53 1013.57 1013.10 1012.49 1012.46 1012.72 1013.19 1012.76 1013.14 1014.63 1015.78 1016.42 1016.98 1017.03 1016.74 1016.02 1015.11 1014.71 1014.30 1014.81 1015.20 1015.18 1014.93 1015.21 1015.99 1015.88 1016.02 1016.13 1016.24 1016.49 1016.86 1017.38 1017.41 1017.21 1017.36 1017.75 1018.26 1018.77 1019.06 1019.22 1019.60 1020.07 1020.24 1020.25
1010.31 1011.80 1012.60 1013.16 1012.86 1013.16 1013.78 1013.89 1013.67 1013.59 1013.79 1013.36 1012.95 1013.39 1013.44 1014.10 1014.22 1014.26 1015.55 1016.56 1017.27 1017.51 1017.73 1017.71 1017.24 1016.60 1016.03 1015.50 1015.63 1015.71 1015.59 1015.60 1015.55 1015.88 1016.46 1016.77 1016.89 1016.90 1016.56 1016.66 1017.16 1017.78 1017.88 1018.01 1018.22 1018.70 1019.17 1019.67 1020.14 1020.59 1021.02 1021.49 1021.69 1021.91
1010.16 1011.31 1012.19 1013.20 1013.58 1013.83 1013.96 1014.26 1014.21 1014.03 1013.58 1013.56 1013.64 1014.03 1014.10 1014.03 1014.67 1015.81 1016.97 1018.04 1018.10 1018.05 1017.95 1017.63 1017.33 1016.85 1016.34 1016.33 1016.34 1016.53 1016.52 1016.57 1016.69 1016.89 1017.07 1017.40 1017.78 1017.73 1017.60 1017.58 1017.78 1018.37 1018.78 1019.04 1019.35 1019.67 1020.18 1020.76 1021.25 1021.79 1022.15 1022.53 1023.10 1023.40
1011.05 1011.53 1012.06 1014.00 1014.53 1014.83 1014.75 1014.66 1014.47 1014.57 1014.86 1014.39 1014.47 1014.91 1014.91 1015.51 1016.30 1016.70 1017.37 1018.10 1018.26 1017.98 1017.72 1017.30 1017.14 1016.95 1016.49 1016.47 1016.79 1016.92 1017.05 1017.18 1017.31 1017.30 1017.37 1017.83 1018.30 1018.95 1018.66 1018.52 1018.99 1019.54 1019.89 1020.16 1020.56 1020.90 1021.50 1021.96 1022.45 1022.83 1023.26 1023.76 1024.19 1024.34
1011.77 1012.11 1012.79 1013.90 1014.68 1015.20 1015.81 1016.40 1016.43 1016.80 1016.75 1016.90 1016.66 1016.49 1016.64 1016.85 1017.20 1017.71 1018.04 1018.03 1018.28 1017.96 1017.39 1017.13 1016.92 1016.77 1016.64 1016.71 1017.47 1017.68 1017.77 1017.79 1017.59 1017.36 1017.48 1018.04 1018.76 1019.26 1019.18 1019.49 1020.07 1020.42 1020.67 1021.04 1021.63 1022.30 1022.77 1023.17 1023.60 1023.88 1024.27 1024.69 1025.20 1025.45
1011.81 1012.38 1013.52 1014.36 1015.12 1016.17 1016.95 1017.41 1017.84 1017.99 1017.63 1017.29 1017.39 1017.38 1017.27 1017.33 1017.34 1017.34 1017.58 1017.69 1017.63 1017.51 1017.32 1017.12 1016.90 1016.59 1016.70 1017.01 1017.27 1017.38 1017.64 1017.88 1017.93 1017.82 1017.73 1018.37 1019.22 1019.70 1020.16 1020.68 1021.06 1021.42 1021.88 1022.29 1022.74 1023.20 1023.71 1024.30 1024.83 1025.33 1025.71 1025.94 1026.19 1026.44
1012.48 1012.88 1013.52 1014.80 1016.00 1016.96 1017.31 1017.34 1017.47 1017.75 1017.85 1017.68 1017.12 1016.97 1017.05 1017.22 1017.09 1016.90 1017.16 1017.43 1017.49 1017.25 1016.98 1016.92 1016.97 1017.07 1017.14 1017.13 1017.32 1017.81 1018.03 1018.52 1018.75 1018.69 1018.86 1019.54 1020.24 1020.75 1021.14 1021.52 1021.90 1022.34 1022.82 1023.32 1023.91 1024.50 1025.04 1025.44 1025.80 1026.20 1026.74 1027.29 1027.65 1027.94
1012.81 1013.25 1014.03 1014.93 1016.01 1016.67 1016.79 1016.66 1016.57 1016.48 1016.56 1016.63 1016.88 1017.17 1017.14 1017.11 1016.80 1016.64 1017.01 1017.04 1017.05 1016.85 1016.91 1017.02 1017.15 1017.24 1017.62 1018.03 1018.26 1018.61 1019.01 1019.19 1019.33 1019.69 1020.22 1020.66 1021.03 1021.45 1021.92 1022.40 1022.83 1023.31 1023.85 1024.56 1025.23 1025.77 1026.20 1026.47 1026.95 1027.56 1028.09 1028.45 1028.81 1029.13
Wind_Speed
16 17 15 16 11 9 8 7 8 18 16 13 10 8 5 1 4 3 3 3 2 2 3 3 4 4 2 2 3 3 1 2 3 4 3 1 3 1 4 2 6 8 9 6 5 6 9 7 7 6 3 3 5 9
16 16 16 14 12 9 8 7 6 7 18 16 13 10 9 5 1 2 2 1 1 2 3 1 4 3 4 2 2 4 2 3 4 4 3 1 4 3 2 4 5 6 5 3 9 7 1 10 2 3 2 2 5 10
16 13 15 13 11 10 11 11 12 13 11 16 19 14 11 9 6 2 2 2 1 1 5 2 8 2 1 5 0 3 3 3 3 1 1 1 7 3 4 7 4 7 6 5 3 3 12 12 11 9 5 4 4 9
15 15 15 13 12 12 12 12 14 15 17 14 15 19 14 12 9 7 2 1 0 1 5 4 1 4 1 3 5 1 2 3 3 1 3 4 4 3 3 3 4 2 8 5 8 15 12 14 13 12 13 7 6 8
16 15 15 15 15 13 14 16 17 18 19 18 16 18 16 13 10 4 3 4 4 3 3 5 2 3 2 2 4 3 4 3 2 3 5 4 2 2 3 2 7 8 9 8 9 7 3 3 1 5 11 14 14 11
17 16 17 17 16 15 17 17 18 20 20 20 19 13 21 15 10 2 3 1 4 4 2 5 1 1 1 2 4 4 4 3 2 3 3 4 1 3 5 6 9 13 16 20 16 0 4 4 3 4 8 10 11 13
18 17 18 17 18 18 17 19 24 24 23 21 20 14 19 17 8 3 0 3 6 5 2 4 4 2 1 1 2 2 2 2 2 2 5 3 3 4 4 11 15 15 18 15 12 2 11 10 9 5 5 2 4 5
20 16 15 16 14 16 21 25 23 21 20 21 17 14 20 17 8 4 4 9 4 0 2 4 2 2 2 1 2 1 2 2 4 3 1 3 3 4 12 27 17 20 17 15 9 13 11 2 1 2 2 4 5 8
15 15 13 11 14 17 19 20 19 18 18 18 17 10 2 2 3 3 5 1 4 2 4 4 3 1 1 1 2 1 2 4 1 4 4 3 5 14 17 14 14 14 10 5 2 1 3 8 7 5 6 6 7 9
17 15 10 8 12 17 16 18 18 17 19 17 6 3 4 3 11 10 3 3 4 4 4 4 1 0 2 1 1 2 2 3 4 3 2 5 9 22 18 17 13 8 6 7 2 5 4 6 10 11 13 8 9 6
17 14 8 3 12 9 11 15 19 18 13 2 4 3 2 5 2 2 3 5 5 5 6 5 6 8 7 5 4 4 2 2 4 2 4 4 9 7 2 6 5 7 8 8 8 2 2 1 2 5 8 9 7 6
16 16 9 5 9 5 9 20 20 7 3 6 6 7 3 2 2 5 5 4 5 5 2 2 3 4 2 2 4 4 4 2 7 2 3 6 8 5 2 2 2 5 4 4 3 5 3 4 2 2 3 2 4 4
16 16 10 6 9 15 18 23 20 24 19 3 4 4 3 1 5 7 8 5 5 2 2 1 1 0 1 4 4 4 6 6 0 4 7 8 8 2 2 2 2 3 2 2 3 2 3 5 3 3 5 3 2 3
16 17 14 9 11 16 22 24 19 7 5 3 5 6 4 5 5 5 3 4 4 3 1 2 2 3 1 4 4 6 1 2 5 6 9 5 3 4 4 3 3 6 5 4 5 4 5 5 5 3 3 4 3 5
15 16 17 12 12 16 18 21 11 3 2 3 2 4 5 1 1 4 3 4 3 2 2 1 1 1 3 5 6 4 1 8 8 9 9 2 4 4 4 4 5 7 6 5 5 5 6 5 4 5 2 2 3 3
17 13 9 15 14 13 15 12 5 2 2 3 2 2 2 3 3 2 4 4 4 2 2 2 2 3 6 5 5 11 6 8 6 5 2 3 3 3 3 4 4 6 6 5 4 5 4 3 3 3 3 5 3 2
21 3 13 17 16 17 17 4 2 3 3 4 3 2 3 1 3 4 4 4 5 2 1 2 4 7 5 6 7 7 10 12 12 2 2 3 4 4 4 4 4 4 4 5 5 6 5 3 2 6 8 7 7 7
2 6 19 20 13 11 2 0 2 4 6 4 4 6 4 3 3 4 4 4 5 4 5 6 3 5 6 7 10 5 9 12 6 4 3 3 3 3 3 3 3 4 4 5 7 7 7 7 8 6 6 5 5 5
6 8 19 23 9 4 3 4 3 4 5 1 2 1 2 2 4 5 4 5 7 3 3 4 7 6 10 6 6 6 4 2 7 9 3 4 4 2 1 2 5 3 5 6 8 6 6 8 6 5 4 4 5 5
15 13 17 23 12 3 3 2 0 3 5 3 1 3 4 4 4 4 7 4 4 3 7 8 12 12 12 10 4 4 5 4 7 7 7 3 2 1 1 2 2 1 4 6 6 6 4 5 6 6 6 6 5 6
10 5 16 13 3 3 2 4 3 2 2 4 3 5 4 2 4 5 6 5 7 6 10 9 12 12 2 3 4 4 6 7 8 5 4 3 2 1 2 2 2 2 3 4 4 5 6 5 4 5 5 6 6 6
3 14 3 2 2 2 2 1 1 2 3 1 2 2 2 3 4 5 3 6 6 9 7 2 2 3 3 5 3 4 5 6 4 2 1 5 5 4 3 2 2 3 4 5 4 4 4 4 4 5 6 6 7 7
13 5 3 2 3 3 2 2 3 4 4 3 3 3 3 4 4 3 4 4 2 1 1 0 2 3 6 5 3 4 4 2 1 2 4 3 4 4 4 4 2 3 5 4 2 4 4 5 6 6 6 6 6 8
7 5 5 6 6 4 2 3 1 3 2 3 3 4 4 4 3 4 5 5 2 2 2 3 1 3 4 4 4 2 1 2 3 4 4 5 4 4 4 4 4 4 4 3 3 4 5 6 6 6 7 7 7 8
7 6 5 5 2 5 4 5 4 3 5 4 4 5 4 3 4 5 7 4 3 2 1 4 4 4 5 2 2 2 1 4 5 4 4 5 5 4 4 4 4 3 2 3 4 6 6 6 7 8 8 8 10 10
7 5 8 9 3 6 8 7 7 7 3 5 7 2 1 2 3 8 1 3 2 1 1 2 2 4 1 3 2 1 1 0 4 5 3 2 1 2 4 4 3 4 4 3 5 7 8 8 8 10 10 10 10 10
6 7 3 1 1 4 2 1 1 3 6 7 4 5 4 3 7 2 1 0 2 1 2 3 3 3 4 2 2 2 3 4 4 6 5 4 4 3 2 4 5 3 3 5 6 7 8 9 9 9 9 8 8 7
4 6 9 7 3 1 5 3 6 8 6 3 3 4 7 8 3 2 2 3 2 4 4 4 4 4 1 1 2 3 4 5 7 7 7 7 6 5 6 7 8 11 6 7 7 8 8 8 9 9 10 9 8 7
3 3 5 4 2 3 5 6 6 1 2 2 5 5 4 0 1 2 2 2 1 3 4 2 2 1 3 4 4 4 3 2 3 4 6 5 3 3 3 7 7 7 7 9 14 12 12 9 10 9 10 9 7 7
4 3 5 3 6 7 2 0 0 2 1 1 1 1 2 2 2 2 3 3 4 4 3 3 1 2 4 6 4 3 3 2 2 1 3 4 5 4 5 7 7 6 7 9 11 12 14 11 10 8 9 8 7 7
3 3 4 2 3 1 1 3 2 1 1 1 1 2 1 2 3 4 3 3 2 2 3 4 3 2 3 5 3 2 2 3 4 4 7 8 6 6 6 6 6 6 7 8 8 8 9 9 8 9 9 10 10 9
2 2 4 3 1 1 1 1 2 2 3 2 3 2 2 2 4 3 3 4 4 5 4 3 4 3 2 4 4 4 6 4 3 5 9 7 7 7 7 7 7 7 9 10 9 8 9 10 9 10 10 10 9 8
3 3 3 4 2 2 2 1 2 2 3 4 4 5 4 3 5 1 2 1 1 0 3 3 4 5 6 5 6 6 6 6 10 13 13 13 12 11 7 6 7 9 11 10 9 9 10 13 11 10 9 9 8 8
Wind_Direction
247 223 213 219 232 239 243 253 263 237 231 233 234 234 234 246 338 327 304 17 293 250 286 231 202 186 206 185 259 128 203 175 188 234 251 182 236 104 286 157 187 186 167 194 185 230 276 139 124 200 204 131 154 172
231 216 216 213 219 229 240 254 272 290 235 235 231 227 228 211 219 2 270 78 299 238 261 261 244 243 227 173 241 183 320 162 230 241 231 247 215 209 238 272 211 240 226 195 215 226 135 200 301 293 329 165 181 176
214 210 224 218 219 240 251 252 265 269 286 223 236 227 221 212 206 208 281 336 315 297 284 237 233 188 284 230 154 226 206 199 210 3 331 305 241 179 220 229 235 222 197 244 320 235 243 228 244 238 213 242 180 192
211 211 212 211 226 240 250 259 261 262 266 263 251 234 217 209 207 209 226 127 36 313 274 271 146 267 32 251 222 191 116 81 86 209 236 240 248 195 258 305 245 11 161 223 257 276 271 246 225 236 213 209 236 202
218 212 214 224 235 234 247 254 257 262 256 257 262 229 222 203 203 222 236 233 222 248 290 302 251 141 109 196 220 197 168 154 174 201 223 233 246 207 218 287 240 180 200 204 243 230 239 291 185 227 208 211 206 187
206 211 222 234 226 235 246 252 264 265 264 246 248 250 226 193 175 191 295 161 227 191 284 276 125 95 79 217 225 213 208 208 221 238 229 230 60 237 263 252 241 218 224 230 246 150 251 289 259 204 221 231 210 199
212 219 226 224 227 241 255 268 268 260 247 246 232 242 209 197 169 184 153 117 149 154 244 269 248 64 187 182 178 193 175 229 259 248 233 249 177 198 258 252 239 220 229 238 245 100 279 237 254 184 189 234 176 186
214 220 222 238 247 257 269 269 257 246 233 230 223 218 207 190 186 230 190 181 119 104 264 261 251 270 185 176 209 175 203 184 214 257 228 223 156 221 249 242 257 249 252 259 230 203 232 105 57 176 134 137 166 205
211 218 216 223 260 271 269 265 257 231 216 210 205 180 127 139 161 186 130 41 149 250 279 222 239 341 214 50 4 204 268 242 120 242 220 203 196 228 234 257 240 245 218 230 113 55 242 235 241 201 191 201 212 216
200 198 203 262 268 270 274 239 233 215 198 183 111 153 171 171 119 127 108 120 181 215 225 256 243 324 215 159 233 280 210 252 252 204 113 228 255 256 260 260 261 248 217 156 193 248 198 248 229 228 219 214 215 213
201 190 186 276 261 264 280 220 202 184 137 79 138 104 76 145 97 109 190 196 189 222 193 215 228 224 188 181 215 214 242 239 260 133 240 237 261 250 215 268 348 321 282 245 240 219 209 231 237 229 232 223 216 203
193 180 177 210 248 345 244 179 149 95 96 117 112 97 116 125 77 183 192 202 207 219 73 332 355 323 123 249 173 176 246 197 246 115 248 253 255 268 266 292 348 333 326 297 324 292 292 284 314 309 300 263 227 221
198 175 144 233 213 115 92 107 115 125 113 82 66 97 194 175 174 188 188 194 180 123 82 342 306 230 277 236 223 175 233 231 110 222 237 243 269 205 271 325 300 295 317 344 315 283 290 283 290 226 275 270 264 269
192 180 168 203 179 150 130 133 140 130 76 111 159 143 196 167 213 195 195 105 95 115 109 174 196 212 203 255 201 213 144 243 238 240 235 247 13 345 345 352 328 316 335 343 319 327 313 294 290 290 251 267 284 261
188 185 182 192 168 146 153 156 122 65 96 90 105 144 193 137 102 138 104 123 148 175 353 116 184 213 219 247 232 98 181 243 225 249 241 316 354 339 337 346 338 318 330 341 337 333 322 315 318 315 319 306 261 250
187 188 191 184 173 164 147 125 39 28 66 113 109 151 139 155 174 197 186 146 164 145 117 95 290 244 247 221 226 212 218 239 237 231 339 335 328 329 339 338 342 319 317 336 352 343 315 336 1 26 33 35 4 344
178 172 183 185 178 166 130 93 125 126 172 167 225 222 211 201 177 190 174 187 166 147 145 212 242 233 300 247 228 198 233 243 271 358 339 351 331 352 347 323 357 337 351 13 19 11 6 22 36 61 58 39 47 50
117 182 177 179 172 122 43 116 147 173 200 192 194 208 203 212 181 189 209 187 164 205 162 223 234 233 225 261 282 354 350 342 339 334 335 330 337 1 333 355 356 16 18 35 36 26 21 34 55 59 65 70 71 57
156 172 181 167 135 113 140 157 194 209 211 201 221 191 196 210 236 249 226 201 211 214 190 204 231 224 227 240 264 290 315 355 302 317 306 297 306 308 19 63 45 16 56 46 44 39 37 35 34 27 41 62 69 43
163 174 173 160 143 112 137 150 340 208 194 200 167 174 201 209 212 213 231 206 184 190 217 229 236 242 252 273 214 268 283 279 275 285 279 281 293 265 53 47 76 72 65 67 53 31 41 49 39 44 41 50 70 61
143 184 167 157 63 56 142 152 180 230 131 206 154 172 210 176 218 220 233 170 197 217 235 232 246 250 82 275 256 253 262 248 240 239 290 232 215 199 116 106 89 59 66 72 75 65 56 49 37 43 54 59 59 64
164 134 113 115 116 115 190 165 166 123 182 132 166 214 233 220 231 223 171 193 229 232 236 217 235 257 266 260 247 230 255 257 234 218 171 138 168 167 151 130 112 100 83 69 64 78 68 46 52 60 62 62 57 54
131 112 101 111 123 188 137 169 174 191 193 196 151 208 226 219 211 128 231 214 278 6 304 151 261 274 266 285 268 260 245 261 241 184 147 121 105 97 106 78 66 128 103 62 39 73 76 61 60 71 66 60 62 61
101 145 158 178 181 161 132 166 175 203 167 188 197 235 241 216 137 217 241 234 121 125 217 260 256 247 250 249 225 222 8 173 154 133 119 127 118 84 79 79 67 44 59 92 84 83 74 70 70 70 69 70 64 65
130 172 175 163 113 121 162 164 182 186 227 166 199 251 242 174 214 229 235 202 147 140 43 320 272 252 261 262 197 131 309 180 163 150 75 97 110 109 89 74 68 46 340 105 87 86 79 76 74 75 71 72 73 68
173 159 179 180 144 171 182 166 197 203 165 181 223 253 215 190 244 254 239 21 22 3 39 347 327 304 264 346 42 56 4 261 138 107 69 45 74 139 137 132 117 75 21 44 91 97 93 89 82 78 71 63 70 80
149 188 183 345 130 118 121 89 77 162 179 206 196 172 154 197 242 261 6 267 283 308 282 260 260 277 308 11 54 24 23 24 45 89 93 64 39 10 30 98 100 74 58 74 94 105 106 99 92 88 86 68 56 66
129 171 169 174 156 111 144 157 169 195 202 191 125 162 196 203 243 158 178 142 258 294 290 276 257 247 262 103 92 110 88 89 91 98 96 67 45 40 63 77 77 79 73 77 86 87 90 93 94 94 91 86 78 63
121 162 131 117 126 187 205 188 204 73 14 203 159 200 234 115 106 214 204 164 277 276 278 253 181 159 98 74 48 49 87 113 166 151 109 115 115 47 34 85 82 83 89 91 85 85 87 91 93 91 90 90 86 75
151 186 103 100 167 200 122 190 57 79 329 15 57 28 289 256 220 184 218 225 197 200 233 259 211 204 149 130 138 112 50 13 341 337 142 137 127 137 104 94 89 87 93 93 96 96 91 91 90 83 83 83 84 84
114 92 83 62 170 143 109 113 100 156 225 266 208 251 276 306 235 210 211 204 223 228 214 198 188 151 141 145 150 118 72 33 16 53 95 105 109 102 98 96 95 97 99 101 100 100 101 94 94 97 91 83 70 74
80 100 134 171 130 101 197 172 147 179 163 209 264 291 333 335 280 194 186 174 186 195 196 186 172 143 87 81 73 65 77 96 94 90 90 98 101 105 103 100 96 99 99 96 96 99 101 103 100 94 89 84 79 76
83 73 81 101 109 213 217 165 201 252 209 211 186 190 211 231 256 105 138 248 295 168 147 107 100 94 88 95 102 97 94 96 101 102 105 108 110 107 99 97 99 99 97 96 94 99 100 101 95 94 94 91 84 77